Terminal Aerodrome Forecast
Issued by NWS

Home | Current Version | Previous Version | Graphics & Text | Print | Product List | Glossary On
Versions: 1 2 3 4 5 6 7 8 9 10 11 12 13 14 15 16 17
000
FTUS43 KTOP 251000 AAA
TAFFOE
TAF AMD
KFOE 251016Z 2510/2606 19012KT P6SM SCT250
     FM251300 21018G26KT P6SM FEW040 SCT200
     FM260100 19013KT P6SM BKN100=

USA.gov is the U.S. government's official web portal to all federal, state and local government web resources and services.